When you browse on this site, cookies collect data to enhance your experience and personalize the content and advertising you see.
Visit our Privacy Policy to learn more. By continuing to use the site, you agree to this use of cookies and data.
  • en Suisse
  • Liste des pays
  • À 7 jours
  • Température de l'eau
  • Carte satellitaire
  • Carte météo
  • Widgets météo
  • user-avatar
    Se connecter

    Météo par heure à Djelfa

    Ce jour, 18 Juin, Mardi

    Heure Température Précipitation Vent Pression Humidité
    00:00 +22°C° 0 mm 4 m/s 666 mmHg 54%
    01:00 +22°C° 0 mm 4 m/s 665 mmHg 52%
    02:00 +21°C° 0 mm 4 m/s 665 mmHg 50%
    03:00 +21°C° 0 mm 4 m/s 665 mmHg 49%
    04:00 +21°C° 0 mm 5 m/s 665 mmHg 46%
    05:00 +22°C° 0 mm 5 m/s 665 mmHg 43%
    06:00 +23°C° 0 mm 6 m/s 666 mmHg 41%
    07:00 +26°C° 0 mm 6 m/s 666 mmHg 35%
    08:00 +28°C° 0 mm 6 m/s 667 mmHg 30%
    09:00 +30°C° 0 mm 6 m/s 667 mmHg 24%
    10:00 +32°C° 0 mm 6 m/s 668 mmHg 22%
    11:00 +33°C° 0 mm 5 m/s 668 mmHg 20%
    12:00 +34°C° 0 mm 4 m/s 668 mmHg 17%
    13:00 +35°C° 0 mm 4 m/s 668 mmHg 17%
    14:00 +35°C° 0 mm 4 m/s 667 mmHg 16%
    15:00 +36°C° 0 mm 4 m/s 667 mmHg 15%
    16:00 +36°C° 0 mm 4 m/s 667 mmHg 15%
    17:00 +35°C° 0 mm 3 m/s 667 mmHg 15%
    18:00 +35°C° 0 mm 3 m/s 666 mmHg 15%
    19:00 +34°C° 0 mm 3 m/s 667 mmHg 17%
    20:00 +31°C° 0 mm 3 m/s 667 mmHg 19%
    21:00 +29°C° 0 mm 3 m/s 667 mmHg 22%
    22:00 +28°C° 0 mm 4 m/s 667 mmHg 23%
    23:00 +28°C° 0 mm 5 m/s 666 mmHg 25%

    Demain, 19 Juin, Mercredi

    Heure Température Précipitation Vent Pression Humidité
    00:00 +27°C° 0 mm 5 m/s 666 mmHg 26%
    01:00 +26°C° 0 mm 6 m/s 666 mmHg 27%
    02:00 +26°C° 0 mm 6 m/s 666 mmHg 29%
    03:00 +24°C° 0 mm 6 m/s 666 mmHg 30%
    04:00 +26°C° 0 mm 6 m/s 666 mmHg 29%
    05:00 +26°C° 0 mm 5 m/s 666 mmHg 29%
    06:00 +26°C° 0 mm 5 m/s 667 mmHg 29%
    07:00 +28°C° 0 mm 5 m/s 667 mmHg 26%
    08:00 +30°C° 0 mm 6 m/s 668 mmHg 23%
    09:00 +33°C° 0 mm 7 m/s 668 mmHg 20%
    10:00 +34°C° 0 mm 7 m/s 668 mmHg 18%
    11:00 +36°C° 0 mm 7 m/s 668 mmHg 16%
    12:00 +38°C° 0 mm 7 m/s 668 mmHg 14%
    13:00 +38°C° 0 mm 7 m/s 668 mmHg 13%
    14:00 +39°C° 0 mm 7 m/s 667 mmHg 13%
    15:00 +39°C° 0 mm 7 m/s 667 mmHg 12%
    16:00 +39°C° 0 mm 7 m/s 667 mmHg 12%
    17:00 +38°C° 0 mm 8 m/s 667 mmHg 13%
    18:00 +37°C° 0 mm 8 m/s 667 mmHg 13%
    19:00 +35°C° 0 mm 8 m/s 667 mmHg 15%
    20:00 +34°C° 0 mm 7 m/s 667 mmHg 16%
    21:00 +32°C° 0 mm 7 m/s 667 mmHg 18%
    22:00 +30°C° 0 mm 7 m/s 667 mmHg 19%
    23:00 +30°C° 0 mm 6 m/s 666 mmHg 20%

    Après-demain, 20 Juin, Jeudi

    Heure Température Précipitation Vent Pression Humidité
    00:00 +29°C° 0 mm 6 m/s 666 mmHg 22%
    01:00 +28°C° 0 mm 6 m/s 666 mmHg 21%
    02:00 +28°C° 0 mm 6 m/s 665 mmHg 21%
    03:00 +27°C° 0 mm 6 m/s 665 mmHg 21%
    04:00 +27°C° 0 mm 7 m/s 665 mmHg 21%
    05:00 +28°C° 0 mm 7 m/s 666 mmHg 20%
    06:00 +28°C° 0 mm 7 m/s 666 mmHg 20%
    07:00 +31°C° 0 mm 8 m/s 667 mmHg 18%
    08:00 +33°C° 0 mm 8 m/s 667 mmHg 16%
    09:00 +35°C° 0 mm 9 m/s 667 mmHg 14%
    10:00 +37°C° 0 mm 9 m/s 668 mmHg 13%
    11:00 +38°C° 0 mm 9 m/s 668 mmHg 12%
    12:00 +39°C° 0 mm 8 m/s 668 mmHg 10%
    13:00 +39°C° 0 mm 8 m/s 667 mmHg 10%
    14:00 +39°C° 0 mm 8 m/s 667 mmHg 10%
    15:00 +39°C° 0 mm 8 m/s 666 mmHg 10%
    16:00 +39°C° 0 mm 8 m/s 666 mmHg 10%
    17:00 +38°C° 0 mm 7 m/s 666 mmHg 10%
    18:00 +38°C° 0 mm 7 m/s 666 mmHg 10%
    19:00 +35°C° 0 mm 7 m/s 666 mmHg 11%
    20:00 +34°C° 0 mm 7 m/s 666 mmHg 12%
    21:00 +32°C° 0 mm 6 m/s 665 mmHg 13%
    22:00 +32°C° 0 mm 6 m/s 665 mmHg 13%
    23:00 +30°C° 0 mm 6 m/s 665 mmHg 14%

    21 Juin, Vendredi

    Heure Température Précipitation Vent Pression Humidité
    00:00 +29°C° 0 mm 5 m/s 665 mmHg 15%
    01:00 +28°C° 0 mm 5 m/s 665 mmHg 16%
    02:00 +28°C° 0 mm 5 m/s 665 mmHg 16%
    03:00 +27°C° 0 mm 4 m/s 664 mmHg 17%
    04:00 +27°C° 0 mm 5 m/s 665 mmHg 17%
    05:00 +28°C° 0 mm 5 m/s 665 mmHg 16%
    06:00 +28°C° 0 mm 5 m/s 666 mmHg 16%
    07:00 +30°C° 0 mm 7 m/s 666 mmHg 14%
    08:00 +33°C° 0 mm 9 m/s 667 mmHg 12%
    09:00 +36°C° 0 mm 10 m/s 667 mmHg 11%
    10:00 +38°C° 0 mm 10 m/s 667 mmHg 10%
    11:00 +39°C° 0 mm 10 m/s 667 mmHg 9%
    12:00 +40°C° 0 mm 10 m/s 667 mmHg 8%
    13:00 +42°C° 0 mm 10 m/s 666 mmHg 8%
    14:00 +42°C° 0 mm 11 m/s 666 mmHg 8%
    15:00 +42°C° 0 mm 11 m/s 666 mmHg 8%
    16:00 +40°C° 0 mm 10 m/s 665 mmHg 8%
    17:00 +39°C° 0 mm 10 m/s 665 mmHg 9%
    18:00 +39°C° 0 mm 10 m/s 665 mmHg 10%
    19:00 +37°C° 0 mm 9 m/s 665 mmHg 11%
    20:00 +35°C° 0 mm 9 m/s 665 mmHg 12%
    21:00 +33°C° 0 mm 8 m/s 666 mmHg 13%
    22:00 +32°C° 0 mm 7 m/s 665 mmHg 16%
    23:00 +29°C° 0 mm 6 m/s 665 mmHg 18%

    22 Juin, Samedi

    Heure Température Précipitation Vent Pression Humidité
    00:00 +28°C° 0 mm 5 m/s 665 mmHg 20%
    01:00 +27°C° 0 mm 4 m/s 664 mmHg 22%
    02:00 +26°C° 0 mm 3 m/s 664 mmHg 24%
    03:00 +25°C° 0 mm 2 m/s 664 mmHg 26%
    04:00 +26°C° 0 mm 3 m/s 664 mmHg 24%
    05:00 +27°C° 0 mm 4 m/s 665 mmHg 21%
    06:00 +28°C° 0 mm 5 m/s 666 mmHg 19%
    07:00 +30°C° 0 mm 7 m/s 666 mmHg 16%
    08:00 +33°C° 0 mm 10 m/s 666 mmHg 14%
    09:00 +37°C° 0 mm 12 m/s 667 mmHg 12%
    10:00 +38°C° 0 mm 12 m/s 667 mmHg 10%
    11:00 +39°C° 0 mm 12 m/s 667 mmHg 9%
    12:00 +42°C° 0 mm 12 m/s 667 mmHg 8%
    13:00 +42°C° 0 mm 12 m/s 666 mmHg 8%
    14:00 +42°C° 0 mm 11 m/s 666 mmHg 8%
    15:00 +42°C° 0 mm 11 m/s 665 mmHg 8%
    16:00 +41°C° 0 mm 11 m/s 665 mmHg 8%
    17:00 +40°C° 0 mm 10 m/s 665 mmHg 9%
    18:00 +39°C° 0 mm 10 m/s 665 mmHg 9%
    19:00 +38°C° 0 mm 10 m/s 665 mmHg 10%
    20:00 +36°C° 0 mm 10 m/s 666 mmHg 12%
    21:00 +34°C° 0 mm 10 m/s 666 mmHg 13%
    22:00 +33°C° 0 mm 10 m/s 666 mmHg 13%
    23:00 +32°C° 0 mm 10 m/s 666 mmHg 14%

    23 Juin, Dimanche

    Heure Température Précipitation Vent Pression Humidité
    00:00 +31°C° 0 mm 10 m/s 666 mmHg 14%
    01:00 +31°C° 0 mm 9 m/s 666 mmHg 14%
    02:00 +29°C° 0 mm 9 m/s 665 mmHg 14%
    03:00 +29°C° 0 mm 9 m/s 665 mmHg 14%
    04:00 +29°C° 0 mm 9 m/s 666 mmHg 13%
    05:00 +29°C° 0 mm 9 m/s 666 mmHg 13%
    06:00 +31°C° 0 mm 9 m/s 667 mmHg 12%
    07:00 +32°C° 0 mm 10 m/s 667 mmHg 11%
    08:00 +34°C° 0 mm 12 m/s 668 mmHg 10%
    09:00 +36°C° 0 mm 13 m/s 668 mmHg 9%
    10:00 +38°C° 0 mm 13 m/s 668 mmHg 8%
    11:00 +39°C° 0 mm 13 m/s 669 mmHg 7%
    12:00 +41°C° 0 mm 13 m/s 669 mmHg 7%
    13:00 +41°C° 0 mm 13 m/s 668 mmHg 7%
    14:00 +41°C° 0 mm 12 m/s 668 mmHg 7%
    15:00 +41°C° 0 mm 12 m/s 668 mmHg 7%
    16:00 +39°C° 0 mm 11 m/s 668 mmHg 8%
    17:00 +39°C° 0 mm 11 m/s 668 mmHg 8%
    18:00 +38°C° 0 mm 10 m/s 668 mmHg 9%
    19:00 +35°C° 0 mm 9 m/s 668 mmHg 10%
    20:00 +34°C° 0 mm 8 m/s 668 mmHg 11%
    21:00 +32°C° 0 mm 8 m/s 668 mmHg 13%
    22:00 +30°C° 0 mm 7 m/s 668 mmHg 14%
    23:00 +29°C° 0 mm 7 m/s 668 mmHg 14%
    Voir plus